Location: Unspecified
(54.1780°N, 0.0000°E)
Time: 16:35:33
(UTC+00:00)

Explorer 7 - Pass Details

Date: 19 June 2019
Orbit: 485 x 680 km, 50.3° (Epoch: 22 July)

Event Time Altitude Azimuth Distance (km) Brightness Sun altitude
Rises 11:45:08 0° 247° (WSW) 2,871 10.6 59.1°
Reaches altitude 10° 11:47:26 10° 242° (WSW) 1,998 10.0 59.1°
Maximum altitude 11:51:52 49° 168° (SSE) 841 10.1 59.2°
Drops below altitude 10° 11:56:32 10° 95° (E) 2,093 10.0 59.2°
Sets 11:58:59 0° 90° (E) 3,022 10.6 59.2°
